[[{"header":{"parameterUnit":"m.s-1","parameterCategory":1,"la1":30.2991,"la2":30.254,"lo1":-89.0895,"lo2":-89.0444,"dy":0.0017,"dx":0.0017,"nx":28,"ny":28,"refTime":"2024-05-02T21:00:00:Z","depth":0,"parameterNumber":2,"parameterNumberName":"U-component_of_WINDS"},"data":[0,0,0,0,0,0,0,0,0,0,0,0,0,0,0,0,0,0,0,0,0,0,0,0,0,0,0,0,0,0,0,0,0,0,0,0,0,0,0,0,0,0,0,0,0,0,0,0,0,0,0,0,0,0,0,0,0,0,-3.2526,-3.2527,0,-3.2561,-3.2562,-3.2562,-3.2516,-3.2514,-3.2513,-3.2511,-3.2546,-3.2548,-3.2551,0,0,0,0,0,0,0,0,0,0,0,0,0,-3.2419,-3.2421,-3.2526,-3.2527,-3.2527,-3.2561,-3.2562,-3.2562,-3.2516,-3.2514,-3.2512,-3.251,-3.2545,-3.2548,-3.2551,0,0,0,0,0,0,0,0,0,0,0,0,0,-3.2461,-3.2422,-3.2526,-3.2508,-3.2507,-3.2561,-3.2562,-3.2562,-3.2517,-3.2514,-3.2512,-3.2509,-3.2544,-3.2548,-3.2551,-3.2625,0,0,-3.2563,-3.2565,0,0,0,0,0,0,0,0,-3.2458,-3.2465,-3.251,-3.251,-3.2508,-3.2532,-3.2537,-3.2583,-3.2517,-3.2513,-3.2511,-3.2508,-3.2543,-3.2547,-3.2559,-3.2626,-3.2628,-3.2563,-3.2565,-3.2567,-3.2568,0,0,0,0,0,0,0,-3.2456,-3.2463,-3.254,-3.2511,-3.251,-3.2498,-3.2502,-3.2545,-3.2542,-3.2513,-3.251,-3.2515,-3.2542,-3.2555,-3.2559,-3.2628,-3.2563,-3.2566,-3.2569,-3.257,-3.2758,-3.276,0,0,0,0,0,0,-3.2455,-3.2461,-3.2539,-3.2541,-3.2477,-3.2502,-3.2506,-3.2527,-3.2541,-3.2541,-3.2517,-3.2512,-3.255,-3.2555,-3.256,-3.2647,-3.2567,-3.2571,-3.2573,-3.2755,-3.2758,-3.2761,0,0,0,0,0,0,-3.2453,-3.2462,-3.2538,-3.25,-3.2509,-3.2507,-3.2531,-3.2529,-3.2542,-3.2544,-3.2543,-3.2531,-3.2548,-3.2555,-3.2609,-3.2647,-3.2572,-3.2576,-3.2752,-3.2756,-3.276,-3.282,0,0,0,0,0,0,-3.245,-3.2462,-3.249,-3.2501,-3.2511,-3.2586,-3.2533,-3.2531,-3.2549,-3.2543,-3.2557,-3.2557,-3.2547,-3.2604,-3.2613,-3.2651,-3.2579,-3.2748,-3.2753,-3.2758,-3.2814,-3.2826,-3.2835,0,0,0,0,0,-3.2446,-3.2505,-3.2491,-3.2501,-3.2546,-3.2588,-3.2594,-3.2582,-3.2552,-3.258,-3.2581,-3.2556,-3.2642,-3.261,-3.2619,-3.2659,-3.2746,-3.2752,-3.2758,-3.281,-3.2823,-3.2835,0,0,0,0,0,0,-3.2497,-3.2506,-3.2491,-3.2555,-3.2571,-3.258,-3.2615,-3.2596,-3.2621,-3.2615,-3.2598,-3.2602,-3.2659,-3.2665,-3.2629,-3.2731,-3.2689,-3.2697,-3.2725,-3.2738,-3.2748,-3.2745,-3.2582,0,0,0,0,0,-3.2516,-3.255,-3.2556,-3.2612,-3.2621,-3.2617,-3.2635,-3.2624,-3.264,-3.2646,-3.2652,-3.2668,-3.2698,-3.2719,-3.2747,-3.2816,-3.2818,-3.2848,-3.2858,-3.2867,-3.2874,-3.291,-3.2923,-3.2781,-3.2781,-3.2781,0,0,-3.2555,-3.2564,-3.2587,-3.2623,-3.2634,-3.2669,-3.2623,-3.2662,-3.2688,-3.2652,-3.2703,-3.2708,-3.2725,-3.2787,-3.2814,-3.2793,-3.2914,-3.2875,-3.2881,-3.2884,-3.2918,-3.2931,-3.2943,-3.2785,-3.2785,-3.2784,0,0,-3.2644,-3.2655,-3.2703,-3.2715,-3.2733,-3.273,-3.2742,-3.2754,-3.2755,-3.2807,-3.2781,-3.2811,-3.2864,-3.2877,-3.2891,-3.2986,-3.2964,-3.2996,-3.3049,-3.3085,-3.3096,-3.3106,-3.3139,-3.3151,-3.3003,-3.3004,-3.3004,0,-3.269,-3.2743,-3.273,-3.2771,-3.2787,-3.2758,-3.2806,-3.2818,-3.2845,-3.2856,-3.2833,-3.2899,-3.2908,-3.2972,-3.2996,-3.3008,-3.302,-3.2994,-3.3096,-3.3105,-3.3114,-3.3146,-3.3159,-3.3007,-3.3007,-3.3006,-3.3006,0,-3.2798,-3.2835,-3.2871,-3.2898,-3.2919,-3.2963,-3.2957,-3.2979,-3.2967,-3.2967,-3.3019,-3.303,-3.306,-3.3074,-3.3063,-3.3137,-3.3123,-3.3098,-3.3055,-3.3132,-3.3161,-3.3173,-3.3012,-3.3011,-3.301,-3.3009,0,0,-3.2919,-3.2938,-3.2952,-3.2963,-3.2981,-3.3009,-3.3053,-3.3082,-3.3102,-3.3121,-3.3157,-3.3203,-3.318,-3.3195,-3.3185,-3.3217,-3.3291,-3.3187,-3.3188,-3.3205,-3.3373,-3.3391,-3.3405,-3.3277,-3.3279,-3.3281,-3.3371,0,-3.3007,-3.3082,-3.3072,-3.3144,-3.3178,-3.3151,-3.3188,-3.3203,-3.3204,-3.3233,-3.3234,-3.3267,-3.3234,-3.3243,-3.3274,-3.3275,-3.3324,-3.3269,-3.3309,-3.3311,-3.3304,-3.342,-3.3439,-3.3523,-3.3382,-3.3384,-3.3386,0,-3.312,-3.3144,-3.3219,-3.3232,-3.3246,-3.328,-3.3306,-3.3334,-3.3351,-3.3349,-3.3367,-3.3352,-3.3395,-3.3353,-3.3412,-3.3375,-3.3391,-3.3394,-3.3397,-3.34,-3.3352,-3.3424,-3.355,-3.3562,-3.3404,-3.3402,-3.3401,0,-3.32,-3.3251,-3.3302,-3.3313,-3.333,-3.3354,-3.3362,-3.3376,-3.3395,-3.3418,-3.343,-3.3458,-3.3473,-3.3495,-3.3487,-3.3457,-3.3548,-3.3505,-3.3547,-3.3548,-3.3566,-3.3565,-3.3695,-3.3579,-3.3579,-3.3579,-3.3578,0,-3.3299,-3.3346,-3.3338,-3.337,-3.3421,-3.341,-3.3461,-3.3466,-3.3479,-3.3511,-3.349,-3.352,-3.3509,-3.3539,-3.3533,-3.3583,-3.359,-3.359,-3.3587,-3.3591,-3.3591,-3.36,-3.3594,-3.3582,-3.3581,-3.3581,-3.358,0,-3.3396,-3.3393,-3.3447,-3.3458,-3.3463,-3.35,-3.351,-3.354,-3.3539,-3.358,-3.3589,-3.3589,-3.3623,-3.3618,-3.3655,-3.3652,-3.3713,-3.3704,-3.3708,-3.3705,-3.3747,-3.3743,-3.3887,-3.3905,-3.3778,-3.378,-3.3781,0,-3.3458,-3.3494,-3.3509,-3.3529,-3.3539,-3.3572,-3.3591,-3.3581,-3.3601,-3.3623,-3.365,-3.3683,-3.3708,-3.3763,-3.3766,-3.3795,-3.3786,-3.3835,-3.379,-3.3792,-3.3786,-3.3783,-3.3786,-3.3843,-3.3844,-3.3845,-3.3846,0,-3.357,-3.3567,-3.3595,-3.3623,-3.3646,-3.3667,-3.3687,-3.3704,-3.3696,-3.372,-3.3755,-3.3775,-3.3813,-3.3845,-3.3873,-3.388,-3.3862,-3.3861,-3.3872,-3.3875,-3.3875,-3.3875,-3.373,-3.3857,-3.3856,-3.3855,-3.3855,-3.3854,-3.3651,-3.3681,-3.3697,-3.3729,-3.3743,-3.3761,-3.379,-3.3793,-3.3822,-3.3853,-3.3846,-3.3885,-3.3901,-3.3935,-3.3946,-3.3977,-3.3959,-3.3975,-3.3979,-3.3983,-3.3988,-3.3871,-3.3982,-3.3981,-3.3981,-3.3981,-3.3981,0,-3.3761,-3.377,-3.38,-3.3827,-3.3853,-3.3834,-3.3854,-3.3877,-3.3911,-3.3928,-3.3953,-3.3993,-3.4024,-3.403,-3.406,-3.4083,-3.4075,-3.4091,-3.4088,-3.409,-3.4002,-3.3989,-3.4096,-3.4096,-3.4096,-3.4096,-3.4096,-3.4096,-3.3821,-3.3871,-3.387,-3.3926,-3.3935,-3.3973,-3.3986,-3.4003,-3.4017,-3.4062,-3.4088,-3.4092,-3.4104,-3.4134,-3.4162,-3.4163,-3.4174,-3.4193,-3.4191,-3.4108,-3.4097,-3.4086,-3.4073,-3.4196,-3.4196,-3.4276,-3.4277,-3.4278]},{"header":{"parameterUnit":"m.s-1","parameterCategory":1,"la1":30.2991,"la2":30.254,"lo1":-89.0895,"lo2":-89.0444,"dy":0.0017,"dx":0.0017,"nx":28,"ny":28,"refTime":"2024-05-02T21:00:00:Z","depth":0,"parameterNumber":3,"parameterNumberName":"V-component_of_WINDS"},"data":[0,0,0,0,0,0,0,0,0,0,0,0,0,0,0,0,0,0,0,0,0,0,0,0,0,0,0,0,0,0,0,0,0,0,0,0,0,0,0,0,0,0,0,0,0,0,0,0,0,0,0,0,0,0,0,0,0,0,3.8662,3.8663,0,3.8686,3.8686,3.8686,3.8653,3.8652,3.865,3.8649,3.8671,3.8672,3.8674,0,0,0,0,0,0,0,0,0,0,0,0,0,3.8587,3.8588,3.8662,3.8663,3.8663,3.8686,3.8686,3.8687,3.8653,3.8651,3.865,3.8649,3.867,3.8672,3.8674,0,0,0,0,0,0,0,0,0,0,0,0,0,3.8616,3.8589,3.8662,3.8649,3.8648,3.8686,3.8686,3.8687,3.8653,3.8651,3.865,3.8648,3.8669,3.8672,3.8674,3.8726,0,0,3.8682,3.8683,0,0,0,0,0,0,0,0,3.8614,3.8619,3.8651,3.865,3.8649,3.8665,3.8667,3.87,3.8654,3.8651,3.8649,3.8647,3.867,3.8672,3.8681,3.8727,3.8727,3.8682,3.8684,3.8685,3.8686,0,0,0,0,0,0,0,3.8612,3.8617,3.8671,3.8651,3.865,3.8641,3.8644,3.8673,3.867,3.8651,3.8649,3.8652,3.8669,3.8678,3.8681,3.8728,3.8682,3.8684,3.8686,3.8687,3.8819,3.8821,0,0,0,0,0,0,3.8612,3.8616,3.8671,3.8672,3.8627,3.8644,3.8647,3.8661,3.867,3.8669,3.8654,3.8651,3.8675,3.8678,3.8681,3.8743,3.8685,3.8687,3.8689,3.8817,3.8819,3.8821,0,0,0,0,0,0,3.8611,3.8617,3.867,3.8644,3.865,3.8647,3.8664,3.8663,3.8672,3.8672,3.8671,3.8664,3.8673,3.8678,3.8715,3.8743,3.8688,3.8691,3.8814,3.8818,3.882,3.8866,0,0,0,0,0,0,3.8609,3.8617,3.8636,3.8644,3.8651,3.8704,3.8666,3.8664,3.8677,3.8673,3.8681,3.868,3.8672,3.8712,3.8718,3.8746,3.8693,3.8812,3.8816,3.8819,3.8862,3.887,3.8877,0,0,0,0,0,3.8606,3.8647,3.8638,3.8644,3.8676,3.8705,3.8709,3.87,3.8679,3.8698,3.8699,3.868,3.8739,3.8716,3.8723,3.8751,3.881,3.8815,3.8819,3.8858,3.8868,3.8877,0,0,0,0,0,0,3.8641,3.8648,3.8637,3.8682,3.8694,3.87,3.8724,3.8711,3.8727,3.8723,3.871,3.8712,3.8753,3.8756,3.873,3.8802,3.8771,3.8777,3.8799,3.8808,3.8816,3.8814,3.8695,0,0,0,0,0,3.8654,3.8679,3.8683,3.8722,3.8729,3.8726,3.8738,3.8731,3.8741,3.8746,3.8749,3.8759,3.8781,3.8794,3.8814,3.8862,3.8864,3.8885,3.8893,3.8899,3.8904,3.8932,3.8942,3.8836,3.8836,3.8836,0,0,3.8681,3.8688,3.8704,3.873,3.8738,3.8763,3.873,3.8757,3.8776,3.875,3.8786,3.8789,3.88,3.8844,3.8863,3.8847,3.8934,3.8905,3.891,3.8912,3.8937,3.8947,3.8956,3.8839,3.8839,3.8838,0,0,3.8743,3.8751,3.8785,3.8795,3.8808,3.8806,3.8815,3.8823,3.8824,3.8861,3.8842,3.8864,3.89,3.891,3.8919,3.8988,3.8972,3.8995,3.9034,3.9061,3.9069,3.9076,3.9102,3.9111,3.9,3.9,3.9,0,3.8775,3.8813,3.8804,3.8834,3.8847,3.8826,3.8861,3.887,3.8888,3.8897,3.888,3.8927,3.8932,3.8979,3.8996,3.9004,3.9014,3.8993,3.9069,3.9076,3.9083,3.9107,3.9116,3.9003,3.9002,3.9002,3.9002,0,3.8852,3.8879,3.8905,3.8925,3.8941,3.8973,3.8969,3.8986,3.8977,3.8977,3.9015,3.9022,3.9043,3.9054,3.9045,3.91,3.909,3.9071,3.9039,3.9096,3.9118,3.9127,3.9007,3.9006,3.9005,3.9004,0,0,3.8934,3.8952,3.8962,3.8972,3.8986,3.9006,3.9038,3.9061,3.9075,3.9089,3.9116,3.9149,3.9132,3.9143,3.9135,3.9159,3.9214,3.9137,3.9137,3.9151,3.9276,3.929,3.9301,3.9204,3.9206,3.9207,3.9275,0,3.8997,3.9054,3.9048,3.9101,3.9127,3.9109,3.9136,3.9148,3.915,3.9171,3.9172,3.9196,3.9172,3.9179,3.9201,3.9203,3.9239,3.9198,3.9228,3.9229,3.9226,3.9312,3.9327,3.9391,3.9284,3.9285,3.9286,0,3.9077,3.9097,3.9153,3.9166,3.9176,3.9202,3.9223,3.9244,3.9257,3.9256,3.927,3.9259,3.9291,3.926,3.9304,3.9276,3.9289,3.9292,3.9294,3.9296,3.9261,3.9317,3.9411,3.942,3.93,3.9298,3.9297,0,3.9133,3.9173,3.9213,3.9222,3.9237,3.9256,3.9263,3.9274,3.9289,3.9307,3.9316,3.9338,3.9349,3.9366,3.9361,3.9338,3.9407,3.9375,3.9407,3.9408,3.9422,3.9421,3.9519,3.943,3.943,3.943,3.9429,0,3.9204,3.9239,3.9238,3.9262,3.9302,3.9296,3.9335,3.9339,3.9351,3.9375,3.936,3.9384,3.9376,3.9399,3.9395,3.9433,3.9438,3.9439,3.9437,3.944,3.944,3.9448,3.9443,3.9432,3.9432,3.9431,3.9431,0,3.9272,3.9273,3.9315,3.9328,3.9332,3.936,3.937,3.9393,3.9395,3.9426,3.9433,3.9435,3.9461,3.9459,3.9488,3.9485,3.9533,3.9526,3.9529,3.9527,3.956,3.9557,3.9666,3.9681,3.9582,3.9583,3.9584,0,3.9317,3.9345,3.9361,3.9377,3.9387,3.9413,3.9428,3.9423,3.944,3.9459,3.9479,3.9505,3.9525,3.9569,3.9572,3.9595,3.9588,3.9625,3.9591,3.9594,3.9589,3.9588,3.9591,3.9631,3.9633,3.9633,3.9634,0,3.9398,3.9397,3.9421,3.9445,3.9465,3.9483,3.95,3.9514,3.9511,3.953,3.9558,3.9574,3.9605,3.9631,3.9653,3.966,3.9647,3.9645,3.9654,3.9657,3.9658,3.9658,3.9547,3.9642,3.9641,3.9641,3.964,3.964,3.9456,3.948,3.9496,3.9523,3.9536,3.9553,3.9576,3.9581,3.9605,3.9631,3.9626,3.9658,3.9672,3.9701,3.971,3.9734,3.9721,3.9733,3.9737,3.974,3.9744,3.9654,3.9738,3.9738,3.9738,3.9737,3.9737,0,3.9536,3.9546,3.9571,3.9597,3.9619,3.9606,3.9625,3.9643,3.9672,3.9687,3.9708,3.9741,3.9767,3.9773,3.9798,3.9816,3.9811,3.9823,3.9821,3.9823,3.9754,3.9745,3.9827,3.9827,3.9827,3.9827,3.9827,3.9827,3.958,3.9621,3.9623,3.967,3.968,3.9712,3.9724,3.974,3.9752,3.979,3.9812,3.9816,3.9828,3.9854,3.9877,3.9878,3.9888,3.9902,3.9901,3.9837,3.9828,3.9819,3.981,3.9904,3.9905,3.9968,3.9968,3.9969]}]]